Weather History for Romeoville, IL

Change the Weather History Date:

Monday, April 29, 2013

  Actual Average Record
Temperature  
Mean Temperature 62 °F 55 °F  
Max Temperature 74 °F 66 °F 81 °F (2007)
Min Temperature 49 °F 44 °F 32 °F (2008)
Degree Days  
Heating Degree Days 3 10  
Month to date heating degree days 519 440  
Since 1 July heating degree days 5979 5985  
Cooling Degree Days 0 0  
Month to date cooling degree days 0 0  
Year to date cooling degree days 0 0  
Growing Degree Days 10 (Base 50)    
Moisture  
Dew Point 52 °F    
Average Humidity 73    
Maximum Humidity 98    
Minimum Humidity 49    
Precipitation  
Precipitation 0.00 in 0.17 in 0.45 in (1996)
Month to date precipitation 7.86 3.79  
Year to date precipitation 15.94 10.27  
Snow  
Snow 0.00 in 0.00 in 0.00 in (2011)
Month to date snowfall T 0.5  
Since 1 July snowfall 23.2 32.3  
Snow Depth 0.00 in    
Sea Level Pressure  
Sea Level Pressure 29.86 in    
Wind  
Wind Speed 10 mph (SSW)    
Max Wind Speed 21 mph    
Max Gust Speed 26 mph    
Visibility 8 miles    
Events      
T = Trace of Precipitation, MM = Missing Value Source: NWS Daily Summary

Daily Weather History Graph

Daily Weather History Graph

Search for Another Location

Airport:

Trip Planner

Search our weather history database for the weather conditions in past years. The results will help you decide how hot, cold, wet, or windy it might be!

Date:

Astronomy

Apr. 29, 2013 Rise Set
Actual Time 5:51 AM CDT 7:48 PM CDT
Civil Twilight 5:21 AM CDT 8:18 PM CDT
Nautical Twilight 4:44 AM CDT 8:55 PM CDT
Astronomical Twilight 4:05 AM CDT 9:35 PM CDT
Moon No Moon Rise 9:10 AM CDT (4/29)
Length of Visible Light 14h 57m
Length of Day
13h 57m
Waning Gibbous, 80% of the Moon is Illuminated
Apr 29
Waning Gibbous
May 2
Last Quarter
May 9
New
May 17
First Quarter
May 24
Full

Hourly Weather History & Observations

Time (CDT) Temp. Dew Point Humidity Pressure Visibility Wind Dir Wind Speed Gust Speed Precip Events Conditions
12:15 AM 52.2 °F 50.5 °F 94% 29.87 in 5.0 mi South 6.9 mph - N/A   Clear
12:35 AM 49.5 °F 48.2 °F 95% 29.88 in 3.0 mi SSW 4.6 mph - N/A   Clear
12:55 AM 50.7 °F 50.2 °F 98% 29.88 in 4.0 mi SSW 4.6 mph - N/A   Clear
1:15 AM 50.9 °F 50.2 °F 97% 29.88 in 4.0 mi SW 5.8 mph - N/A   Clear
1:35 AM 50.4 °F 49.6 °F 97% 29.88 in 3.0 mi SW 5.8 mph - N/A   Clear
1:55 AM 50.5 °F 50.0 °F 98% 29.87 in 4.0 mi SW 5.8 mph - N/A   Clear
2:15 AM 52.7 °F 51.1 °F 94% 29.87 in 7.0 mi WSW 9.2 mph - N/A   Clear
2:35 AM 52.0 °F 50.2 °F 94% 29.87 in 7.0 mi WSW 6.9 mph - N/A   Clear
2:55 AM 51.8 °F 50.0 °F 94% 29.87 in 7.0 mi WSW 9.2 mph - N/A   Clear
3:15 AM 52.0 °F 50.0 °F 93% 29.87 in 7.0 mi West 10.4 mph - N/A   Clear
3:35 AM 51.8 °F 50.0 °F 94% 29.87 in 7.0 mi West 9.2 mph - N/A   Clear
3:55 AM 51.6 °F 49.8 °F 94% 29.88 in 7.0 mi West 9.2 mph - N/A   Clear
4:15 AM 51.4 °F 49.5 °F 93% 29.88 in 7.0 mi WSW 8.1 mph - N/A   Clear
4:35 AM 50.5 °F 49.1 °F 95% 29.88 in 7.0 mi SW 5.8 mph - N/A   Clear
4:55 AM 50.0 °F 48.6 °F 95% 29.89 in 5.0 mi SW 5.8 mph - N/A   Clear
5:15 AM 49.1 °F 48.0 °F 96% 29.90 in 5.0 mi SW 4.6 mph - N/A   Clear
5:35 AM 49.1 °F 47.8 °F 95% 29.90 in 5.0 mi WSW 5.8 mph - N/A   Clear
5:55 AM 49.1 °F 47.8 °F 95% 29.91 in 5.0 mi SW 5.8 mph - N/A   Clear
6:15 AM 49.5 °F 48.2 °F 95% 29.92 in 5.0 mi SW 5.8 mph - N/A   Clear
6:35 AM 49.6 °F 48.2 °F 95% 29.92 in 5.0 mi WSW 5.8 mph - N/A   Clear
6:55 AM 51.3 °F 49.5 °F 94% 29.93 in 5.0 mi SW 4.6 mph - N/A   Clear
7:15 AM 52.0 °F 50.0 °F 93% 29.93 in 7.0 mi SSW 4.6 mph - N/A   Clear
7:35 AM 53.1 °F 50.4 °F 91% 29.93 in 7.0 mi SW 6.9 mph - N/A   Clear
7:55 AM 54.5 °F 51.1 °F 88% 29.92 in 7.0 mi SW 6.9 mph - N/A   Clear
8:15 AM 56.1 °F 51.6 °F 85% 29.92 in 10.0 mi SW 6.9 mph - N/A   Clear
8:35 AM 57.4 °F 51.3 °F 80% 29.92 in 10.0 mi WSW 4.6 mph - N/A   Clear
8:55 AM 58.6 °F 51.3 °F 76% 29.92 in 10.0 mi WSW 4.6 mph - N/A   Clear
9:15 AM 59.7 °F 51.4 °F 74% 29.92 in 10.0 mi WSW 6.9 mph - N/A   Clear
9:35 AM 61.0 °F 51.4 °F 71% 29.91 in 10.0 mi SSW 8.1 mph - N/A   Clear
9:55 AM 61.9 °F 51.1 °F 68% 29.91 in 10.0 mi SW 10.4 mph - N/A   Clear
10:15 AM 63.0 °F 50.9 °F 65% 29.91 in 10.0 mi SW 11.5 mph - N/A   Clear
10:35 AM 64.4 °F 51.3 °F 62% 29.90 in 10.0 mi SW 11.5 mph - N/A   Clear
10:55 AM 64.9 °F 51.4 °F 62% 29.90 in 10.0 mi South 13.8 mph - N/A   Clear
11:15 AM 66.2 °F 51.8 °F 60% 29.90 in 10.0 mi South 13.8 mph - N/A   Clear
11:35 AM 66.6 °F 51.8 °F 59% 29.89 in 10.0 mi South 12.7 mph 17.3 mph N/A   Clear
11:55 AM 67.5 °F 52.2 °F 58% 29.88 in 10.0 mi South 16.1 mph - N/A   Clear
12:15 PM 68.5 °F 52.7 °F 57% 29.89 in 10.0 mi South 16.1 mph - N/A   Clear
12:35 PM 68.9 °F 52.9 °F 57% 29.88 in 10.0 mi South 15.0 mph - N/A   Clear
12:55 PM 68.9 °F 52.9 °F 57% 29.87 in 10.0 mi South 16.1 mph 23.0 mph N/A   Scattered Clouds
1:15 PM 70.0 °F 54.0 °F 57% 29.87 in 10.0 mi South 17.3 mph 21.9 mph N/A   Scattered Clouds
1:35 PM 70.2 °F 52.5 °F 53% 29.86 in 10.0 mi South 15.0 mph 23.0 mph N/A   Scattered Clouds
1:55 PM 70.7 °F 53.6 °F 55% 29.86 in 10.0 mi South 15.0 mph 20.7 mph N/A   Clear
2:15 PM 70.7 °F 52.0 °F 51% 29.85 in 10.0 mi South 13.8 mph 23.0 mph N/A   Clear
2:35 PM 70.9 °F 50.9 °F 49% 29.84 in 10.0 mi South 17.3 mph - N/A   Clear
2:55 PM 70.2 °F 51.1 °F 51% 29.83 in 10.0 mi South 18.4 mph 24.2 mph N/A   Clear
3:15 PM 71.2 °F 51.3 °F 49% 29.82 in 10.0 mi South 16.1 mph 21.9 mph N/A   Clear
3:35 PM 72.0 °F 52.3 °F 50% 29.82 in 10.0 mi South 19.6 mph - N/A   Clear
3:55 PM 72.5 °F 52.3 °F 49% 29.81 in 10.0 mi SSW 17.3 mph - N/A   Clear
4:15 PM 72.1 °F 52.5 °F 50% 29.81 in 10.0 mi South 17.3 mph 20.7 mph N/A   Clear
4:35 PM 71.6 °F 51.8 °F 50% 29.80 in 10.0 mi South 17.3 mph - N/A   Clear
4:55 PM 72.5 °F 52.9 °F 50% 29.80 in 10.0 mi South 20.7 mph 24.2 mph N/A   Clear
5:15 PM 71.6 °F 52.3 °F 51% 29.79 in 10.0 mi South 19.6 mph 24.2 mph N/A   Clear
5:35 PM 70.7 °F 52.3 °F 52% 29.79 in 10.0 mi South 17.3 mph 25.3 mph N/A   Clear
5:55 PM 70.2 °F 52.5 °F 53% 29.79 in 10.0 mi South 19.6 mph 25.3 mph N/A   Clear
6:15 PM 69.3 °F 52.7 °F 56% 29.79 in 10.0 mi South 19.6 mph 26.5 mph N/A   Clear
6:35 PM 69.1 °F 53.6 °F 58% 29.79 in 10.0 mi South 16.1 mph 23.0 mph N/A   Clear
6:55 PM 68.7 °F 54.0 °F 59% 29.79 in 10.0 mi South 18.4 mph - N/A   Clear
7:15 PM 68.0 °F 53.6 °F 60% 29.80 in 10.0 mi South 17.3 mph 21.9 mph N/A   Clear
7:35 PM 66.9 °F 53.8 °F 63% 29.80 in 10.0 mi South 15.0 mph 19.6 mph N/A   Clear
7:55 PM 66.4 °F 53.4 °F 63% 29.80 in 10.0 mi South 17.3 mph - N/A   Clear
8:15 PM 66.0 °F 52.7 °F 62% 29.80 in 10.0 mi South 15.0 mph 21.9 mph N/A   Clear
8:35 PM 65.1 °F 54.0 °F 67% 29.81 in 10.0 mi South 15.0 mph - N/A   Clear
8:55 PM 64.8 °F 54.5 °F 69% 29.82 in 10.0 mi South 18.4 mph 21.9 mph N/A   Clear
9:15 PM 64.4 °F 53.8 °F 68% 29.83 in 10.0 mi South 12.7 mph - N/A   Clear
9:35 PM 63.7 °F 53.8 °F 70% 29.83 in 10.0 mi South 12.7 mph 18.4 mph N/A   Clear
9:55 PM 63.1 °F 53.8 °F 71% 29.83 in 10.0 mi South 12.7 mph - N/A   Clear
10:15 PM 62.4 °F 54.1 °F 74% 29.82 in 10.0 mi South 13.8 mph - N/A   Clear
10:35 PM 62.1 °F 54.3 °F 76% 29.82 in 10.0 mi South 15.0 mph - N/A   Clear
10:55 PM 61.9 °F 54.0 °F 75% 29.82 in 10.0 mi South 11.5 mph - N/A   Clear
11:15 PM 62.1 °F 53.6 °F 74% 29.82 in 10.0 mi South 16.1 mph 19.6 mph N/A   Clear
11:35 PM 61.9 °F 52.9 °F 72% 29.82 in 10.0 mi South 15.0 mph - N/A   Clear
11:55 PM 61.7 °F 52.9 °F 73% 29.82 in 10.0 mi South 13.8 mph - N/A   Clear